Ann Arbor, MI

3:48 AM EDT on September 19, 2019 (GMT -0400)
Ann Arbor Municipal

Weather History for KARB - August, 2019

Change the Weather History Date:

Wednesday, August 21, 2019

  Actual Average Record
Temperature  
Mean Temperature 76 °F -  
Max Temperature 88 °F 76 °F 90 °F (2003)
Min Temperature 66 °F 54 °F 45 °F (2004)
Cooling Degree Days 12    
Growing Degree Days 26 (Base 50)    
Moisture  
Dew Point 67 °F    
Average Humidity 76    
Maximum Humidity 93    
Minimum Humidity 49    
Precipitation  
Precipitation 0.00 in - - ()
Sea Level Pressure  
Sea Level Pressure 29.90 in    
Wind  
Wind Speed 6 mph (WNW)    
Max Wind Speed 16 mph    
Max Gust Speed 23 mph    
Visibility 9 miles    
Events      
Averages and records for this station are not official NWS values.
T = Trace of Precipitation, MM = Missing Value Source: NWS Daily Summary

Daily Weather History Graph

Daily Weather History Graph

Search for Another Location

Airport or City:

Astronomy

Aug. 21, 2019 Rise Set
Actual Time 6:48 AM EDT 8:27 PM EDT
Civil Twilight 6:18 AM EDT 8:56 PM EDT
Nautical Twilight 5:42 AM EDT 9:32 PM EDT
Astronomical Twilight 5:04 AM EDT 10:10 PM EDT
Moon 11:37 PM EDT (8/21) 12:29 PM EDT (8/21)
Length of Visible Light 14h 37m
Length of Day
13h 38m
Waning Gibbous, 69% of the Moon is Illuminated
Aug 21
Waning Gibbous
Aug 23
Last Quarter
Aug 30
New
Sep 5
First Quarter
Sep 14
Full

Hourly Weather History & Observations

Time (EDT) Temp. Heat Index Dew Point Humidity Pressure Visibility Wind Dir Wind Speed Gust Speed Precip Events Conditions
12:53 AM 70.0 °F - 68.0 °F 93% 29.94 in 9.0 mi NW 3.5 mph - N/A   Mostly Cloudy
1:53 AM 69.1 °F - 66.9 °F 93% 29.92 in 8.0 mi SW 4.6 mph - 0.00 in   Clear
2:53 AM 66.9 °F - 64.9 °F 93% 29.91 in 9.0 mi WSW 3.5 mph - N/A   Clear
3:53 AM 66.0 °F - 64.0 °F 93% 29.91 in 9.0 mi NNW 4.6 mph - N/A   Clear
4:53 AM 68.0 °F - 66.0 °F 93% 29.91 in 9.0 mi NW 5.8 mph - N/A   Clear
5:53 AM 68.0 °F - 64.9 °F 90% 29.91 in 10.0 mi NNW 8.1 mph - N/A   Clear
6:53 AM 69.1 °F - 66.0 °F 90% 29.91 in 6.0 mi NNW 6.9 mph - N/A   Clear
7:53 AM 71.1 °F - 68.0 °F 90% 29.90 in 5.0 mi North 8.1 mph - N/A   Clear
8:53 AM 75.0 °F - 69.1 °F 82% 29.89 in 7.0 mi Calm Calm - N/A   Clear
9:53 AM 78.1 °F - 69.1 °F 74% 29.91 in 8.0 mi WNW 4.6 mph - N/A   Clear
10:53 AM 80.1 °F 83.6 °F 71.1 °F 74% 29.92 in 9.0 mi West 8.1 mph - N/A   Clear
11:53 AM 82.9 °F 86.5 °F 69.1 °F 63% 29.91 in 10.0 mi West 8.1 mph - N/A   Clear
12:53 PM 84.0 °F 87.0 °F 68.0 °F 58% 29.91 in 10.0 mi WNW 10.4 mph - N/A   Scattered Clouds
1:53 PM 84.0 °F 87.0 °F 68.0 °F 58% 29.91 in 10.0 mi West 10.4 mph - N/A   Scattered Clouds
2:53 PM 86.0 °F 89.4 °F 68.0 °F 55% 29.89 in 10.0 mi West 11.5 mph - N/A   Clear
3:53 PM 87.1 °F 89.2 °F 66.0 °F 49% 29.89 in 10.0 mi West 16.1 mph 21.9 mph N/A   Scattered Clouds
4:53 PM 84.9 °F 87.1 °F 66.0 °F 53% 29.89 in 10.0 mi West 16.1 mph 23.0 mph N/A   Clear
5:53 PM 84.0 °F 86.5 °F 66.9 °F 56% 29.88 in 10.0 mi West 15.0 mph 19.6 mph N/A   Clear
6:53 PM 81.0 °F 83.8 °F 68.0 °F 65% 29.88 in 10.0 mi North 8.1 mph - N/A   Partly Cloudy
7:53 PM 78.1 °F - 66.9 °F 68% 29.88 in 10.0 mi West 6.9 mph - N/A   Clear
8:53 PM 75.0 °F - 68.0 °F 79% 29.86 in 10.0 mi WNW 4.6 mph - N/A   Clear
9:53 PM 73.0 °F - 68.0 °F 84% 29.89 in 10.0 mi WSW 4.6 mph - N/A   Partly Cloudy
10:53 PM 73.0 °F - 69.1 °F 87% 29.91 in 10.0 mi West 4.6 mph - N/A   Mostly Cloudy
11:53 PM 75.0 °F - 66.0 °F 73% 29.91 in 10.0 mi NNW 11.5 mph - N/A   Clear